Location: Croydon
(51.3762°N, 0.0982°W)
Time: 11:52:22
(UTC+00:00)

Altair - Pass Details

Date: 14 November 2019
Orbit: 1502 x 1682 km, 47.2° (Epoch: 06 December)

Event Time Altitude Azimuth Distance (km) Brightness Sun altitude
Rises 02:01:47 0° 173° (S) 4,630 - -47.2°
Reaches altitude 10° 02:07:18 10° 146° (SSE) 3,647 - -46.5°
Exits shadow 02:09:33 12° 132° (SE) 3,478 9.4 -46.2°
Maximum altitude 02:10:35 12° 125° (SE) 3,461 9.4 -46.1°
Drops below altitude 10° 02:13:53 10° 103° (ESE) 3,660 9.8 -45.6°
Sets 02:19:23 0° 77° (ENE) 4,666 10.7 -44.9°
